Wind_Speed
20 20 21 22 22 22 21 20 19 20 21 19 18 18 18 17 16 16 15 13 12 11 12 12 11 10 10 10 10 9 9 8 8 7 7 8 8 8 8 8 8 9 9 9
20 21 22 23 23 23 22 21 20 21 21 20 19 19 19 18 18 17 16 15 14 14 13 13 12 11 11 11 10 10 9 9 9 8 8 8 8 9 10 10 10 10 10 11
21 22 22 23 23 23 22 21 20 21 21 21 20 19 19 19 18 17 17 16 16 15 15 14 14 12 12 11 11 11 10 9 9 10 9 9 10 10 11 11 11 11 10 10
22 23 22 23 23 23 22 22 22 22 21 20 20 18 19 19 19 18 17 16 16 16 16 16 15 14 13 13 13 12 11 11 11 11 11 11 11 11 12 12 11 11 11 11
22 23 22 23 23 24 23 23 23 23 22 22 21 19 18 19 19 18 17 17 17 17 17 17 17 17 16 15 15 14 13 13 13 13 13 12 12 12 12 12 12 11 11 11
23 23 23 23 23 24 24 23 23 22 21 22 21 21 18 20 19 18 18 18 18 18 18 18 19 19 18 17 16 16 15 15 15 15 15 14 14 13 13 13 12 12 12 13
22 23 23 23 23 23 23 22 22 21 21 21 22 22 21 21 20 18 18 18 19 19 19 19 20 20 19 19 18 18 17 17 16 16 16 16 15 15 14 13 13 13 13 13
22 23 23 23 23 23 23 23 22 21 20 20 22 22 22 22 20 18 18 19 19 20 19 19 20 21 21 20 20 19 19 18 18 18 18 17 17 17 16 15 15 15 15 15
23 23 24 24 23 23 23 22 22 22 21 21 22 23 22 22 20 19 18 18 19 19 19 19 20 21 21 21 20 20 20 20 20 19 19 19 19 19 18 17 17 17 17 16
23 23 24 23 23 23 23 22 22 22 22 21 22 23 22 23 20 19 18 18 18 19 19 19 20 21 20 21 21 21 21 21 20 21 21 21 22 21 20 19 18 18 18 18
22 23 23 24 24 23 24 24 24 23 24 22 21 22 24 23 21 19 19 19 19 19 19 20 21 21 22 21 22 22 22 22 23 23 23 23 23 22 22 21 20 20 20 19
23 23 23 24 25 25 25 25 24 24 25 24 22 22 25 23 22 21 20 20 20 20 21 21 22 22 23 23 23 24 24 24 24 24 24 24 23 23 23 23 22 22 21 20
22 24 24 23 25 25 26 25 25 25 25 24 23 23 25 24 23 23 22 22 22 22 22 23 24 25 24 24 24 24 25 25 26 26 26 25 25 24 25 25 25 24 23 22
22 24 24 23 23 25 26 25 24 24 25 24 24 24 26 25 24 24 24 23 23 23 23 24 24 25 25 26 25 25 25 26 26 26 26 26 26 26 26 25 25 24 24 23
23 24 24 24 24 25 26 25 25 25 26 26 25 27 27 27 24 24 25 24 24 24 24 24 25 25 26 27 26 26 26 26 27 27 26 26 26 26 26 25 24 24 24 23
23 24 24 25 25 25 25 25 25 26 26 27 27 27 27 28 26 25 25 25 25 26 26 26 26 26 26 26 27 27 27 27 27 27 27 27 26 26 26 25 24 24 24 23
24 23 23 23 24 24 25 25 25 26 26 26 27 27 27 28 27 26 26 26 26 26 27 27 27 27 26 26 26 27 26 27 27 27 27 27 27 26 25 25 25 25 24 24
23 23 22 21 22 24 24 25 25 25 26 26 26 27 27 27 28 27 27 27 27 27 28 27 27 27 27 27 26 26 27 27 27 27 28 28 27 26 26 26 25 25 25 24
23 23 22 22 22 22 24 24 24 25 26 26 26 26 26 26 26 27 27 27 27 27 27 28 28 28 27 27 27 26 27 28 28 28 28 29 28 26 26 26 25 25 25 26
22 23 23 23 23 22 23 23 23 24 26 26 25 25 25 25 26 27 27 27 27 27 27 27 27 28 27 27 28 27 26 26 26 27 27 28 27 27 26 26 26 25 25 25
22 23 23 23 23 23 23 23 22 24 25 25 25 25 26 26 27 27 27 27 27 27 27 27 27 27 27 27 28 28 27 26 27 27 27 27 27 27 27 26 26 26 26 26
23 23 24 23 23 23 23 23 23 24 24 24 25 25 26 26 26 26 26 26 26 26 26 26 26 26 27 27 27 28 28 27 27 27 26 27 27 28 27 27 26 26 26 26
23 23 23 24 24 24 23 23 23 23 24 24 25 25 25 25 25 25 25 25 26 26 26 26 26 26 26 27 27 27 27 27 27 26 26 25 26 27 27 26 26 25 25 25
23 24 24 24 25 24 24 24 24 24 24 24 25 25 25 25 25 25 25 25 26 26 27 27 27 27 26 26 26 26 26 26 26 26 25 25 25 25 26 26 25 25 26 26
22 23 23 24 25 24 24 25 25 24 24 25 25 25 25 25 25 26 26 26 27 27 28 28 28 27 26 25 25 25 25 25 25 25 25 25 25 26 26 26 26 25 25 25
22 22 22 23 24 24 24 25 25 24 23 23 24 24 24 24 25 26 26 26 26 26 27 27 27 26 25 25 26 26 25 25 25 24 25 25 25 26 26 26 26 26 26 26
Wind_Direction
242 242 242 242 241 241 243 243 245 251 257 257 256 256 258 260 259 259 259 258 259 263 263 264 268 269 269 271 272 273 273 272 266 266 270 273 271 272 271 277 278 280 282 288
243 243 242 241 241 243 244 245 247 251 254 255 256 257 259 259 258 256 253 254 256 258 259 260 261 265 265 266 267 271 269 266 262 263 266 272 272 271 272 273 275 279 285 290
243 243 242 241 242 243 246 247 246 248 254 256 257 258 259 258 257 257 256 253 254 254 254 255 256 260 260 261 262 265 267 264 260 262 266 268 270 272 274 274 275 279 284 285
241 243 243 242 242 243 246 248 248 250 251 254 254 253 256 255 255 255 256 254 252 252 251 252 255 257 258 261 262 261 263 263 264 263 264 266 270 274 275 274 273 275 278 280
243 243 244 243 243 243 244 248 249 251 251 250 254 253 254 256 253 252 252 253 251 253 252 253 254 254 256 258 261 260 262 263 264 264 264 266 267 273 275 273 271 273 277 279
244 244 244 243 243 243 244 248 250 251 252 252 250 252 252 255 254 251 250 250 252 253 252 252 252 253 255 256 257 259 262 263 262 262 262 264 266 270 274 273 270 271 276 278
246 246 245 244 244 243 244 246 249 250 251 252 251 251 251 253 254 251 250 250 253 254 253 251 251 251 253 254 254 257 261 263 261 261 263 265 266 268 269 269 271 272 274 276
246 246 246 245 244 244 244 245 244 246 248 251 254 252 253 254 253 251 250 252 253 252 252 252 251 251 252 253 253 255 260 263 263 264 265 267 267 267 267 267 270 271 273 273
246 247 247 246 244 245 247 246 245 248 249 250 253 255 255 254 253 253 252 252 253 253 253 254 252 252 252 253 253 255 260 262 262 263 262 266 267 268 266 266 268 270 271 271
248 248 247 246 245 246 247 247 246 244 247 249 253 256 258 254 254 255 254 253 254 254 255 254 252 251 251 252 255 258 260 261 263 263 263 266 267 266 264 268 269 269 270 271
248 247 248 247 245 246 247 247 248 247 246 248 253 255 256 257 256 255 254 254 255 255 256 256 255 254 252 254 256 258 258 260 263 265 264 264 266 264 263 267 269 270 270 270
248 247 249 249 248 247 247 247 248 247 247 248 250 254 258 257 256 255 255 254 255 255 256 257 256 255 256 256 258 259 258 260 262 263 263 263 264 264 265 267 269 270 269 270
250 249 250 251 252 250 249 247 246 246 246 248 250 251 257 257 255 255 254 254 254 256 257 257 255 255 257 259 259 260 259 259 261 262 262 262 262 264 267 269 268 267 267 268
252 251 249 248 250 253 251 248 245 244 245 248 249 249 253 255 254 254 254 254 254 257 258 258 258 255 256 259 259 260 261 260 260 261 261 262 261 263 266 267 266 265 265 265
252 252 251 249 249 251 250 249 247 246 246 248 251 252 253 252 254 255 255 255 254 255 257 258 259 258 258 259 260 262 262 261 261 262 262 262 261 263 264 265 265 264 265 265
252 253 254 252 250 250 248 248 247 248 249 249 251 253 254 255 255 255 256 256 255 256 256 257 259 260 261 261 261 262 261 261 262 263 264 262 262 262 264 265 265 264 263 263
251 254 255 255 251 250 249 248 248 249 251 252 253 254 254 255 255 254 254 254 255 255 256 258 259 260 261 262 260 259 260 262 263 263 262 260 262 263 263 264 265 264 264 264
251 252 255 255 250 248 253 252 251 252 253 253 254 254 254 255 254 254 255 255 256 256 257 258 259 261 263 262 260 261 260 262 261 259 259 259 261 263 264 264 266 267 266 267
250 251 252 252 251 254 254 252 251 252 254 254 255 255 255 254 253 254 255 256 257 257 257 257 259 261 262 262 261 264 264 261 257 257 258 259 258 260 264 264 266 268 269 268
249 249 251 251 252 254 256 255 252 253 253 253 254 255 255 254 254 254 254 255 256 256 256 256 258 259 261 262 263 264 264 262 258 258 258 260 258 260 263 265 266 267 269 269
249 250 250 251 253 254 256 256 253 252 252 253 254 255 256 256 255 255 254 254 255 255 255 256 258 260 261 263 264 264 267 264 262 261 262 260 258 259 262 264 264 266 269 270
248 250 251 253 253 253 255 256 255 254 254 254 254 255 256 257 257 255 254 254 256 256 256 256 260 262 263 264 266 268 270 268 263 262 261 259 258 258 261 263 263 266 268 269
248 248 251 253 253 254 255 257 256 257 257 256 256 256 256 257 256 256 256 255 256 258 259 259 260 262 264 265 267 270 271 270 265 262 260 258 257 257 260 261 260 264 266 268
250 251 254 254 253 254 254 256 257 259 259 259 259 258 257 256 255 255 255 255 256 258 258 260 261 263 266 265 267 268 269 270 269 265 261 258 258 259 259 261 264 266 267 267
256 254 255 256 255 255 255 255 256 257 258 258 259 259 259 257 255 255 256 256 256 257 258 259 260 263 265 265 267 267 267 267 268 266 262 260 260 260 262 265 266 267 267 268
258 257 256 257 258 259 258 257 256 256 256 257 258 257 257 257 257 257 256 257 257 257 258 258 260 261 263 265 266 266 265 266 267 265 263 264 265 266 266 265 268 268 268 267
Height
5857 5860 5862 5864 5866 5868 5870 5872 5873 5874 5873 5875 5875 5877 5877 5877 5878 5879 5879 5880 5880 5880 5880 5880 5879 5879 5879 5878 5878 5877 5877 5876 5876 5875 5875 5875 5874 5874 5874 5873 5873 5872 5871 5870
5854 5855 5857 5859 5860 5862 5865 5867 5868 5869 5869 5870 5871 5872 5873 5873 5874 5875 5876 5877 5877 5877 5877 5877 5877 5877 5876 5876 5876 5875 5875 5874 5874 5873 5873 5873 5872 5872 5872 5871 5871 5870 5870 5869
5848 5851 5851 5853 5855 5857 5860 5862 5864 5864 5865 5866 5868 5869 5869 5869 5869 5870 5872 5872 5873 5874 5874 5874 5874 5874 5874 5873 5873 5873 5872 5872 5872 5871 5871 5870 5870 5870 5869 5869 5868 5868 5868 5867
5843 5844 5846 5848 5850 5852 5855 5857 5858 5859 5861 5862 5864 5866 5865 5865 5865 5866 5867 5868 5869 5870 5870 5871 5871 5871 5871 5871 5870 5870 5870 5870 5869 5869 5868 5868 5867 5867 5867 5866 5866 5865 5865 5864
5837 5839 5841 5843 5845 5847 5849 5851 5853 5854 5856 5858 5858 5860 5862 5860 5861 5862 5863 5864 5865 5866 5866 5867 5867 5867 5867 5867 5867 5867 5867 5867 5867 5866 5866 5865 5865 5864 5864 5863 5863 5862 5862 5861
5832 5833 5835 5837 5839 5841 5843 5846 5847 5849 5851 5852 5854 5855 5857 5856 5856 5857 5859 5860 5861 5861 5862 5862 5863 5863 5863 5863 5864 5864 5864 5864 5863 5863 5863 5862 5862 5861 5861 5860 5860 5859 5859 5858
5826 5828 5829 5832 5834 5836 5838 5841 5844 5845 5846 5848 5849 5849 5851 5850 5851 5852 5854 5855 5856 5856 5857 5857 5858 5858 5859 5859 5859 5859 5860 5860 5860 5859 5859 5859 5858 5858 5857 5857 5857 5856 5855 5855
5822 5824 5824 5826 5828 5830 5832 5836 5839 5841 5843 5844 5842 5843 5845 5845 5846 5847 5849 5850 5851 5851 5852 5852 5853 5853 5854 5854 5855 5855 5855 5855 5855 5855 5855 5855 5855 5854 5854 5854 5853 5853 5852 5851
5816 5819 5819 5820 5822 5825 5826 5828 5832 5834 5836 5837 5838 5838 5839 5839 5841 5842 5843 5844 5845 5846 5847 5847 5847 5848 5849 5850 5850 5851 5851 5851 5851 5850 5850 5850 5850 5850 5850 5850 5849 5849 5848 5847
5810 5812 5813 5814 5816 5818 5821 5822 5824 5827 5829 5831 5833 5833 5834 5833 5835 5837 5838 5839 5840 5841 5841 5842 5842 5843 5844 5844 5845 5846 5846 5846 5846 5846 5846 5846 5845 5845 5845 5845 5844 5844 5844 5843
5804 5806 5808 5809 5810 5812 5814 5816 5818 5820 5823 5825 5828 5830 5827 5828 5830 5831 5832 5833 5834 5835 5836 5836 5837 5838 5838 5839 5840 5840 5841 5841 5841 5841 5840 5840 5840 5840 5840 5839 5839 5839 5838 5838
5797 5799 5801 5803 5804 5806 5807 5810 5812 5814 5816 5817 5820 5825 5820 5822 5823 5825 5826 5828 5829 5829 5830 5830 5831 5831 5832 5833 5834 5834 5835 5835 5835 5834 5834 5835 5834 5834 5834 5833 5833 5833 5832 5832
5791 5793 5795 5797 5799 5799 5800 5802 5804 5807 5809 5811 5814 5818 5814 5815 5817 5818 5820 5821 5822 5823 5823 5823 5824 5824 5825 5826 5827 5827 5828 5828 5828 5828 5828 5828 5828 5828 5828 5827 5827 5826 5826 5826
5785 5786 5789 5792 5793 5793 5794 5796 5797 5800 5802 5804 5806 5808 5808 5808 5810 5812 5813 5814 5815 5816 5816 5816 5817 5817 5818 5819 5820 5820 5821 5821 5821 5821 5821 5821 5821 5821 5821 5820 5820 5820 5819 5819
5778 5779 5781 5783 5785 5786 5787 5789 5791 5793 5795 5797 5799 5799 5800 5801 5803 5804 5805 5807 5807 5808 5809 5809 5810 5810 5811 5812 5812 5813 5813 5813 5814 5814 5814 5814 5814 5814 5813 5813 5813 5813 5812 5812
5771 5772 5774 5776 5777 5779 5780 5782 5784 5786 5788 5789 5791 5792 5793 5794 5795 5797 5798 5799 5800 5801 5802 5802 5803 5803 5804 5804 5804 5805 5805 5806 5806 5807 5807 5807 5806 5806 5805 5805 5805 5805 5805 5805
5764 5765 5767 5769 5770 5771 5773 5775 5777 5779 5780 5782 5783 5785 5785 5787 5788 5789 5791 5792 5793 5794 5794 5795 5795 5796 5796 5797 5796 5797 5798 5798 5799 5799 5799 5799 5799 5799 5798 5798 5798 5798 5798 5798
5757 5759 5760 5762 5764 5765 5768 5768 5770 5771 5773 5774 5775 5776 5778 5779 5780 5782 5783 5784 5785 5786 5787 5788 5788 5789 5789 5789 5789 5789 5790 5791 5791 5791 5791 5791 5791 5791 5791 5791 5791 5791 5791 5790
5750 5752 5753 5755 5756 5757 5759 5760 5762 5764 5765 5766 5767 5769 5770 5771 5773 5774 5775 5776 5777 5778 5779 5780 5781 5781 5781 5782 5782 5783 5783 5782 5782 5782 5783 5783 5783 5784 5784 5784 5784 5783 5783 5783
5743 5745 5747 5748 5750 5751 5753 5753 5754 5757 5757 5758 5759 5761 5763 5764 5766 5767 5768 5769 5769 5770 5771 5772 5773 5773 5774 5774 5775 5775 5774 5774 5774 5774 5774 5775 5775 5776 5777 5776 5776 5776 5776 5776
5737 5738 5740 5741 5743 5744 5745 5746 5748 5751 5751 5751 5752 5754 5755 5756 5758 5759 5760 5761 5761 5762 5763 5764 5765 5766 5766 5767 5767 5767 5767 5767 5767 5766 5766 5767 5767 5768 5769 5769 5768 5768 5768 5768
5730 5731 5733 5734 5736 5739 5737 5739 5741 5742 5743 5744 5745 5746 5748 5749 5749 5750 5752 5753 5754 5755 5756 5756 5757 5758 5758 5759 5759 5759 5759 5759 5759 5759 5759 5759 5759 5760 5761 5761 5760 5759 5760 5760
5723 5725 5726 5728 5730 5729 5730 5731 5733 5734 5735 5736 5737 5739 5740 5741 5742 5743 5744 5745 5746 5747 5748 5749 5750 5750 5750 5751 5751 5751 5751 5751 5751 5751 5751 5751 5751 5752 5752 5753 5753 5752 5752 5752
5716 5718 5719 5720 5721 5721 5722 5724 5725 5726 5727 5729 5730 5731 5732 5733 5734 5735 5737 5738 5739 5740 5740 5741 5742 5742 5742 5743 5743 5743 5743 5743 5743 5743 5743 5743 5744 5744 5744 5744 5744 5744 5744 5744
5709 5711 5712 5712 5713 5714 5715 5716 5718 5719 5720 5721 5722 5723 5724 5725 5727 5728 5729 5730 5731 5732 5732 5733 5733 5734 5734 5735 5735 5735 5735 5735 5735 5735 5735 5736 5736 5737 5736 5737 5737 5737 5737 5736
5702 5704 5704 5705 5706 5706 5707 5709 5710 5711 5712 5713 5715 5716 5717 5718 5719 5720 5721 5722 5723 5724 5725 5725 5726 5726 5727 5727 5727 5727 5727 5727 5728 5727 5727 5728 5728 5729 5729 5729 5729 5728 5729 5729